Regional Weather Roundup
Issued by NWS

Home | Current Version | Previous Version | Text Only | Print | Product List | Glossary Off
Versions: 1 2 3 4 5 6 7 8 9 10 11 12 13 14 15 16 17 18 19 20 21 22 23 24 25 26 27 28 29 30 31 32 33 34 35 36 37 38 39 40 41 42 43 44 45 46 47 48 49 50

000
ASUS43 KDMX 111807
RWRIA

WEATHER ROUNDUP FOR IOWA
NATIONAL WEATHER SERVICE DES MOINES IA
100 PM CDT FRI JUL 11 2014

NOTE: "FAIR" INDICATES FEW OR NO CLOUDS BELOW 12,000 FEET WITH NO
SIGNIFICANT WEATHER AND/OR OBSTRUCTIONS TO VISIBILITY.

* - THESE STATIONS ARE NOT NWS STATIONS...THUS NOT UNDER NWS
QUALITY CONTROL.  THEY ALSO DO NOT REPORT WEATHER SUCH
AS PRECIPITATION OR FOG.

IAZ001>003-012>014-020>022-031>034-043>046-111900-
   NORTHWEST IOWA

CITY           SKY/WX    TMP DP  RH WIND       PRES   REMARKS
CARROLL *      CLOUDY    72  68  88 S12G18    29.99R
CHEROKEE *     CLOUDY    74  69  83 SW10      30.00R
DENISON *      PTSUNNY   70  68  94 SW8G14    30.00R
LE MARS *      CLOUDY    75  70  83 S14       29.98S
ORANGE CITY *  PTSUNNY   77  68  73 S12       29.99S
SHELDON *      CLOUDY    75  68  78 S12       29.99S
SIOUX CITY     CLOUDY    75  69  81 S9        29.98R
6HR MIN TEMP:  69; 6HR MAX TEMP:  75; 6HR PCP:  0.13;

SPENCER        PTSUNNY   77  68  73 SW13      30.00R
6HR MIN TEMP:  67; 6HR MAX TEMP:  78; 6HR PCP: TRACE;

STORM LAKE *   CLOUDY    73  70  88 SW14G20   30.02R
$$

IAZ055>058-069>071-079>083-090>094-111900-
   SOUTHWEST IOWA

CITY           SKY/WX    TMP DP  RH WIND       PRES   REMARKS
ATLANTIC *     PTSUNNY   73  68  83 S12       29.99F
AUDUBON *      DRIZZLE   72  70  94 S14       29.99S
CLARINDA *     SUNNY     79  72  78 S12       30.00F HX  82
COUNCIL BLFS * CLOUDY    75  72  88 S8        29.99R
CRESTON *      CLOUDY    73  70  88 S10G20    30.02F
HARLAN  *      PTSUNNY   72  70  94 S15G23    30.00F
LAMONI         CLOUDY    76  69  79 S7G22     30.03F
6HR MIN TEMP:  65; 6HR MAX TEMP:  77; 6HR PCP:  0.12;

RED OAK *      MOSUNNY   77  72  83 S14       29.98F
SHENANDOAH *   SUNNY     81  72  74 S14G20    29.98F HX  84
$$

IAZ047>049-059>061-072>074-084-111900-
   CENTRAL IOWA

CITY           SKY/WX    TMP DP  RH WIND       PRES   REMARKS
AMES           LGT RAIN  68  65  90 S12       30.00F
6HR MIN TEMP:  65; 6HR MAX TEMP:  70; 6HR PCP:  0.16;

ANKENY *       SUNNY     72  66  83 S10       30.02S
CHARITON *     SUNNY     75  70  83 S12       30.04F
DES MOINES     CLOUDY    73  67  81 SE10      30.02F
6HR MIN TEMP:  67; 6HR MAX TEMP:  73; 6HR PCP:  0.20;

GRINNELL*      RAIN      71  64  80 SE12      30.05S
KNOXVILLE *    SUNNY     73  66  78 S9G16     30.03F
MARSHALLTOWN   CLOUDY    71  65  81 S13       30.03F
6HR MIN TEMP:  65; 6HR MAX TEMP:  72; 6HR PCP: TRACE;

PELLA *        CLOUDY    73  66  79 SE8       30.05F
PERRY *          N/A     70  68  94 S16G24    29.96F
$$

IAZ004>006-015-016-023>025-035-036-111900-
   NORTH CENTRAL IOWA

CITY           SKY/WX    TMP DP  RH WIND       PRES   REMARKS
ALGONA *       MOSUNNY   77  68  73 S16       30.01S
CLARION *      MOSUNNY   73  64  73 S12       30.03R
ESTHERVILLE    CLOUDY    79  66  64 SW16G23   29.99S HX  81
6HR MIN TEMP:  65; 6HR MAX TEMP:  80; 6HR PCP: TRACE;

FORT DODGE *   PTSUNNY   75  68  78 S13       30.01R
MASON CITY     PTSUNNY   76  66  71 S13       30.05R
6HR MIN TEMP:  65; 6HR MAX TEMP:  76; 6HR PCP: TRACE;

FOREST CITY *  CLOUDY    73  64  73 S8        30.03R
IOWA FALLS *     N/A     72  64  78 S14G22    30.03S
$$

IAZ007>011-017>019-026>030-037>042-050>054-066-111900-
   NORTHEAST IOWA

CITY           SKY/WX    TMP DP  RH WIND       PRES   REMARKS
CEDAR RAPIDS   PTSUNNY   76  63  64 S14G23    30.05F
6HR MIN TEMP:  65; 6HR MAX TEMP:  76; 6HR PCP: TRACE;

CHARLES CITY * SUNNY     73  63  68 S14       30.05S
CLINTON *      PTSUNNY   77  61  57 SE13      30.16F
DECORAH *        N/A    N/A N/A N/A MISG        N/A
DUBUQUE        CLOUDY    71  61  70 SE14      30.13F
6HR MIN TEMP:  64; 6HR MAX TEMP:  71;

MONTICELLO *   SUNNY     75  64  69 SE10G18   30.09F
OELWEIN *      SUNNY     72  70  94 SE12G22   30.06R
WATERLOO       CLOUDY    72  63  73 S10       30.05R
6HR MIN TEMP:  65; 6HR MAX TEMP:  72;

$$

IAZ064-065-067-068-078-111900-
   EAST CENTRAL IOWA

CITY           SKY/WX    TMP DP  RH WIND       PRES   REMARKS
DAVENPORT      PTSUNNY   77  62  59 SE15      30.13F
6HR MIN TEMP:  63; 6HR MAX TEMP:  79;

IOWA CITY      PTSUNNY   78  66  66 S14       30.10F HX  80
6HR MIN TEMP:  63; 6HR MAX TEMP:  79; 6HR PCP: TRACE;

MT. PLEASANT * CLOUDY    79  63  58 S9        30.10F HX  81
MUSCATINE *    SUNNY     81  64  57 S13       30.11F HX  82
QUAD CITIES    MOSUNNY   77  62  59 SE9       30.12F
6HR MIN TEMP:  63; 6HR MAX TEMP:  80;

$$

IAZ062-063-075>077-085>089-095>099-111900-
   SOUTHEAST IOWA

CITY           SKY/WX    TMP DP  RH WIND       PRES   REMARKS
BURLINGTON     PTSUNNY   80  66  62 VRB7      30.12S HX  82
6HR MIN TEMP:  66; 6HR MAX TEMP:  80;

FAIRFIELD *    SUNNY     77  66  69 SE14      30.08F
FORT MADISON * SUNNY     81  66  61 S8        30.13R HX  83
KEOKUK *       SUNNY     81  68  65 S8        30.11R HX  83
OSKALOOSA *      N/A     74  67  76 SE15G21   30.05F
CENTERVILLE *  SUNNY     77  70  78 SE7       30.07F
OTTUMWA        CLOUDY    75  66  73 SE13G21   30.06F
6HR MIN TEMP:  65; 6HR MAX TEMP:  76;

WASHINGTON *   SUNNY     79  66  65 SE14      30.09F HX  81
$$

ABBREVIATIONS USED IN REMARKS
   TC - TEMPERATURES IN CELSIUS
  WCI - WIND CHILL INDEX
   HX - HEAT INDEX
  VSB - VISIBILITY
$$



USA.gov is the U.S. government's official web portal to all federal, state and local government web resources and services.